sat.trackr.live / text

‹ back to catalog

STARLINK-6207

NORAD 56900 · 2023-083AA

PAYLOAD ACTIVE UNKNOWN

§ Identity

Operator
Country
US
Launch date
2023-06-12
Launch site
AFETR
Launch vehicle
Mass (kg)
RCS (m²)

Purposes: comms

External: N2YO · Heavens-Above · Gunter

§ Orbital elements

Epoch: 2026-05-24T15:56:52.385280Z

Period
94.27 min
Inclination
43.0061°
Eccentricity
0.0001542
Mean motion
15.27575540 rev/d
Perigee alt
482.0 km
Apogee alt
484.1 km
Semi-major
6,861.2 km
B*
1.6988e-6
RAAN
1.9549°
Arg perigee
272.0348°
Mean anomaly
88.0327°
Rev number
16,338

§ Raw data

STARLINK-62071 56900U 23083AA  26144.66449520 -.00000216  00000+0  16988-5 0  99952 56900  43.0061   1.9549 0001542 272.0348  88.0327 15.27575540163382

JSON: /api/v1/satellites/56900 · /tle

For live sub-satellite position, see the globe view (requires WebGL).

§ Visibility from observer

Set your observer location to see the next 7 days of passes ≥ 10°. The values pass through the URL so the page stays shareable.

No JS? Fill the form by hand. The geolocation button needs JavaScript.